Meadville, PA

4:56 AM EDT on September 25, 2017 (GMT -0400)
Port Meadville

Weather History for KGKJ - March, 2014

Change the Weather History Date:

Thursday, March 6, 2014

  Actual Average Record
Temperature  
Mean Temperature 22 °F -  
Max Temperature 33 °F 43 °F 75 °F (1983)
Min Temperature 10 °F 23 °F -2 °F (2015)
Degree Days  
Heating Degree Days 44    
Moisture  
Dew Point 3 °F    
Average Humidity 45    
Maximum Humidity 67    
Minimum Humidity 32    
Precipitation  
Precipitation 0.00 in - - ()
Sea Level Pressure  
Sea Level Pressure 30.38 in    
Wind  
Wind Speed 9 mph (East)    
Max Wind Speed 14 mph    
Max Gust Speed 20 mph    
Visibility 10 miles    
Events      
Averages and records for this station are not official NWS values.
T = Trace of Precipitation, MM = Missing Value Source: NWS Daily Summary

Daily Weather History Graph

Daily Weather History Graph

Search for Another Location

Airport or City:

Trip Planner

Search our weather history database for the weather conditions in past years. The results will help you decide how hot, cold, wet, or windy it might be!

Date:

Astronomy

Mar. 06, 2014 Rise Set
Actual Time 6:47 AM EST 6:17 PM EST
Civil Twilight 6:19 AM EST 6:44 PM EST
Nautical Twilight 5:47 AM EST 7:17 PM EST
Astronomical Twilight 5:15 AM EST 7:49 PM EST
Moon 9:49 AM EST (3/6) No Moon Set
Length of Visible Light 12h 25m
Length of Day
11h 29m
Waxing Crescent, 32% of the Moon is Illuminated
Mar 6
Waxing Crescent
Mar 8
First Quarter
Mar 16
Full
Mar 23
Last Quarter
Mar 30
New

Hourly Weather History & Observations

Time (EST) Temp. Windchill Dew Point Humidity Pressure Visibility Wind Dir Wind Speed Gust Speed Precip Events Conditions
12:53 AM 12.0 °F 1.5 °F 3.0 °F 67% 30.48 in 10.0 mi East 6.9 mph - N/A   Clear
1:53 AM 12.0 °F -2.0 °F 1.9 °F 64% 30.48 in 10.0 mi East 11.5 mph - N/A   Clear
2:53 AM 12.0 °F -1.3 °F -0.0 °F 59% 30.48 in 10.0 mi East 10.4 mph - N/A   Clear
3:53 AM 10.9 °F -3.4 °F -0.9 °F 59% 30.46 in 10.0 mi East 11.5 mph 18.4 mph N/A   Clear
4:53 AM 10.9 °F -4.7 °F -2.0 °F 56% 30.46 in 10.0 mi East 13.8 mph - N/A   Clear
5:53 AM 10.9 °F -1.8 °F -2.9 °F 54% 30.48 in 10.0 mi East 9.2 mph - N/A   Clear
6:53 AM 10.9 °F -2.6 °F -4.0 °F 51% 30.49 in 10.0 mi East 10.4 mph - N/A   Clear
7:53 AM 10.9 °F -3.4 °F -5.1 °F 49% 30.48 in 10.0 mi East 11.5 mph 18.4 mph N/A   Clear
8:53 AM 14.0 °F 0.5 °F -6.0 °F 41% 30.48 in 10.0 mi East 11.5 mph 19.6 mph N/A   Clear
9:53 AM 18.0 °F 4.2 °F -2.9 °F 40% 30.46 in 10.0 mi East 13.8 mph 19.6 mph N/A   Clear
10:53 AM 21.0 °F 12.4 °F -2.0 °F 36% 30.42 in 10.0 mi Variable 6.9 mph - N/A   Clear
11:53 AM 25.0 °F 16.3 °F -0.0 °F 34% 30.40 in 10.0 mi ESE 8.1 mph 16.1 mph N/A   Clear
12:53 PM 28.0 °F 19.3 °F 3.0 °F 34% 30.38 in 10.0 mi SSE 9.2 mph - N/A   Clear
1:53 PM 30.0 °F 21.1 °F 3.0 °F 32% 30.35 in 10.0 mi East 10.4 mph 16.1 mph N/A   Clear
2:53 PM 30.9 °F 23.5 °F 5.0 °F 33% 30.34 in 10.0 mi ESE 8.1 mph - N/A   Clear
3:53 PM 32.0 °F 24.8 °F 5.0 °F 32% 30.31 in 10.0 mi East 8.1 mph - N/A   Clear
4:53 PM 33.1 °F 30.0 °F 6.1 °F 32% 30.30 in 10.0 mi Variable 3.5 mph - N/A   Clear
5:53 PM 32.0 °F 28.7 °F 7.0 °F 35% 30.30 in 10.0 mi Variable 3.5 mph - N/A   Clear
6:53 PM 30.0 °F 26.5 °F 7.0 °F 38% 30.30 in 10.0 mi Variable 3.5 mph - N/A   Clear
7:53 PM 28.0 °F 24.2 °F 8.1 °F 43% 30.29 in 10.0 mi Variable 3.5 mph - N/A   Clear
8:53 PM 27.0 °F 21.6 °F 8.1 °F 45% 30.27 in 10.0 mi Variable 4.6 mph - N/A   Clear
9:53 PM 27.0 °F 19.5 °F 9.0 °F 47% 30.26 in 10.0 mi Variable 6.9 mph - N/A   Clear
10:53 PM 26.1 °F 20.5 °F 10.0 °F 51% 30.22 in 10.0 mi Variable 4.6 mph - N/A   Clear
11:53 PM 25.0 °F 18.1 °F 10.9 °F 55% 30.21 in 10.0 mi Variable 5.8 mph - N/A   Clear